Terug naar catalogus

CENTISPACE-2 S8

ActiefNavigatieLEO
NORAD 68357·PAYLOAD·🇨🇳 China

Gelanceerd Mar 22, 2026 vanaf Yellow Sea Launch Area

Loading…

Volgende Passages (komende 24 uur)

TLE

VersSource: Space-Track

Epoch: Sep 13, 2026, 20:15 UTC

1 68357U 26060H   26256.84384757 -.00000145  00000-0  53530-5 0  9992
2 68357  54.9526  50.7371 0010729 279.7586  80.2179 14.24896469 25599

Volg CENTISPACE-2 S8 in realtime met AllMySat

Download on the App Store